Temperature
23 24 23 24 24 24 23 23 23 23 23 23 23 23 23 22 21 21 21 21 20 20 19 19 18 18 18 18 17 18 17 17 17 16 16 16 16 16 16 16 16 15 15 15
23 23 24 23 23 23 23 23 23 23 23 23 23 23 23 22 21 21 21 21 20 20 19 19 18 18 18 18 17 17 17 17 17 17 16 16 16 16 16 16 15 15 15 15
23 23 23 23 23 23 23 23 23 22 22 22 22 23 23 23 21 21 20 20 20 19 19 19 18 18 18 18 18 18 17 17 17 17 16 16 16 16 16 16 15 15 15 15
23 23 22 22 23 23 22 23 23 22 22 23 22 22 23 23 22 22 21 20 20 19 19 19 18 18 17 18 18 17 17 17 17 17 16 16 16 16 16 15 15 15 15 15
22 22 22 22 23 23 22 22 22 22 22 22 23 22 24 23 22 22 22 20 20 19 19 18 18 18 17 17 17 17 17 17 17 17 17 16 16 16 16 15 15 15 15 15
22 22 22 22 22 22 22 22 22 22 22 22 23 23 23 23 23 22 22 21 20 19 18 18 18 17 17 17 17 17 17 17 17 17 16 16 16 16 15 15 15 15 15 14
22 22 22 22 22 22 22 22 21 21 21 22 23 22 23 23 22 22 21 20 19 18 18 18 17 17 17 17 17 17 17 17 17 16 16 16 16 16 16 15 15 15 15 14
21 22 22 22 22 22 22 22 21 21 21 22 22 22 23 22 21 21 20 20 19 18 17 17 17 17 16 17 17 17 17 16 16 16 16 16 16 16 15 15 15 15 15 14
21 21 22 21 22 22 22 22 22 22 22 21 22 23 22 22 21 21 20 19 19 18 17 16 16 16 16 16 16 16 16 16 16 16 16 16 16 15 15 15 15 15 15 14
21 21 21 21 21 21 22 22 22 21 20 21 21 22 22 22 21 21 20 19 18 17 17 16 16 16 16 16 16 16 16 16 16 16 16 16 15 15 15 15 15 15 14 14
21 21 21 21 21 21 21 21 21 21 21 21 21 22 22 22 21 21 20 19 18 17 16 16 15 15 16 16 16 16 16 15 15 15 15 15 15 15 15 15 14 14 14 14
20 21 21 21 21 20 21 21 21 20 21 21 21 21 21 21 20 20 19 18 17 16 16 15 15 15 15 15 15 15 15 15 15 15 15 15 15 15 14 14 14 14 14 14
19 20 20 20 20 20 20 20 20 21 21 20 20 21 21 20 20 19 18 18 17 16 15 15 15 15 15 15 15 15 15 15 15 15 14 14 14 14 14 14 14 14 14 13
18 19 19 19 20 20 19 19 19 20 20 20 21 21 21 20 20 19 18 17 16 16 15 15 15 15 15 15 15 15 15 15 15 14 14 14 14 14 14 14 14 13 13 13
18 19 19 19 19 19 19 19 19 19 20 20 20 20 20 20 19 18 17 17 16 16 15 15 15 15 15 15 15 14 14 14 14 14 14 13 13 13 13 13 13 13 13 13
18 18 18 18 18 18 18 18 18 19 19 19 20 20 20 19 18 18 17 16 16 15 15 14 14 14 14 14 14 14 14 14 14 13 13 13 13 13 13 13 13 12 12 12
17 17 17 18 18 17 17 18 18 18 18 18 19 19 19 18 18 17 16 15 15 15 14 14 14 14 14 14 14 14 14 13 13 13 13 13 12 12 12 12 12 12 12 12
16 17 17 17 17 16 18 18 18 18 18 18 18 18 17 17 16 15 15 15 14 14 14 14 13 14 14 14 13 13 13 13 13 12 12 12 12 12 12 12 12 11 11 11
16 16 16 16 17 17 17 17 17 17 17 17 17 16 16 15 15 15 14 13 13 13 13 13 13 13 13 13 13 13 13 13 12 12 12 12 12 12 11 11 11 11 11 11
15 15 16 16 16 16 17 17 16 17 17 16 16 15 15 14 16 16 13 13 12 12 12 12 12 12 13 13 12 12 12 12 12 12 12 12 11 11 11 11 11 11 10 10
14 14 15 15 15 16 15 15 15 16 16 14 14 14 14 14 15 14 12 12 12 12 12 12 12 12 12 12 12 12 12 12 12 11 11 11 11 11 11 11 10 10 10 10
14 14 15 15 15 15 14 14 15 14 13 13 13 13 13 13 12 12 11 11 11 11 11 12 12 11 11 11 11 11 11 11 11 11 11 11 10 10 10 10 10 10 10 10
13 14 14 14 14 13 12 13 12 12 12 12 12 12 12 11 11 11 11 11 11 11 11 11 11 11 11 11 11 11 11 11 10 10 10 10 10 10 10 10 10 9 9 9
13 11 12 13 13 12 11 11 10 11 11 11 11 11 10 10 10 10 10 10 10 10 10 10 10 10 10 10 10 10 10 10 10 10 10 10 9 9 9 9 9 9 9 8
12 11 12 12 12 11 11 10 10 10 10 10 10 10 10 10 9 9 9 9 9 9 10 10 10 10 9 9 9 9 9 9 9 9 9 9 9 9 9 8 8 8 8 8
11 11 11 12 12 11 11 10 9 9 9 9 9 9 9 9 9 9 9 9 9 9 9 9 9 9 9 9 9 9 9 9 9 9 8 8 8 8 8 8 8 8 8 8
Wind_Speed
5 7 7 6 6 5 4 5 5 4 2 4 6 6 4 4 5 6 6 6 7 7 7 7 7 7 7 8 8 8 8 8 6 5 4 4 4 3 2 2 2 2 2 2
7 8 6 4 4 5 6 7 5 3 2 5 7 8 5 5 6 6 5 6 6 6 6 7 7 8 9 9 9 9 9 8 7 5 5 4 4 3 3 2 2 2 2 2
9 4 4 6 6 7 7 8 6 5 4 6 6 8 7 6 6 5 5 5 5 6 7 8 8 8 9 9 9 8 9 9 8 7 5 4 4 3 3 3 2 2 2 2
7 4 5 7 7 7 7 5 6 7 7 5 5 7 5 6 6 6 5 5 5 5 6 7 8 9 9 9 9 9 8 8 8 8 7 7 5 4 4 3 3 3 3 2
5 5 6 8 7 7 5 3 6 7 8 8 8 7 4 5 6 5 5 5 5 5 6 6 7 8 8 8 8 8 8 8 8 8 8 7 6 4 4 4 4 4 3 3
5 4 5 5 4 5 4 3 4 5 6 9 7 7 5 3 4 3 3 4 5 5 5 5 5 6 7 7 7 7 8 8 8 8 8 8 7 6 5 5 4 4 3 3
7 7 5 4 5 5 6 6 4 5 6 6 3 6 4 0 0 2 2 2 4 4 4 4 5 6 7 7 8 8 8 8 8 8 8 8 8 7 6 6 5 4 4 4
7 7 6 5 7 6 8 9 6 5 5 4 4 6 2 1 0 1 2 2 3 3 3 4 4 5 6 7 8 8 8 8 8 8 8 7 7 5 5 5 5 5 4 4
5 5 3 3 5 7 7 8 7 8 8 7 6 5 3 3 2 1 1 1 2 3 3 4 4 5 5 6 7 8 8 8 8 8 8 7 6 6 5 5 5 4 4 4
5 6 4 3 4 2 5 5 5 7 7 8 7 8 5 4 2 1 1 1 2 2 3 3 3 4 5 5 5 7 8 8 8 8 7 6 6 6 5 5 5 5 5 4
6 7 6 5 7 7 5 7 7 7 7 7 7 4 0 1 1 1 0 1 2 2 3 3 3 4 4 5 5 5 6 7 7 8 7 7 6 6 5 5 5 5 4 5
5 6 8 7 3 4 7 7 9 8 9 9 9 5 2 1 1 1 1 1 1 2 2 3 3 4 4 5 5 4 5 6 6 6 7 6 6 6 6 5 5 4 4 4
3 5 7 7 6 5 6 6 8 9 8 10 11 5 2 2 2 2 2 1 1 2 2 3 3 4 4 4 4 4 4 5 5 5 6 6 6 6 6 5 5 4 4 5
3 6 9 10 7 5 7 7 9 10 10 11 12 10 5 4 4 4 3 2 2 2 3 3 3 3 3 3 4 4 3 4 5 5 5 5 5 6 6 5 5 5 5 5
4 8 10 11 9 8 10 11 11 14 14 14 13 12 10 7 6 5 4 3 2 2 2 3 3 3 3 3 3 3 3 3 4 5 5 4 4 5 5 5 5 5 5 5
4 7 9 11 10 10 12 12 13 14 15 15 15 13 8 7 4 4 3 3 3 3 3 3 3 4 4 4 4 3 3 3 4 5 5 4 4 4 5 5 5 5 5 5
5 7 8 10 8 9 12 11 12 11 10 11 13 10 7 6 5 5 4 4 4 4 3 3 4 4 4 4 4 4 4 4 4 5 5 4 4 4 4 5 5 5 5 5
8 9 7 7 7 11 5 2 6 8 8 8 9 7 6 6 6 5 4 4 4 4 4 4 3 4 4 4 4 4 4 5 5 5 5 5 5 4 4 5 5 5 5 5
9 8 7 7 9 10 5 3 4 8 8 5 6 6 5 4 4 3 3 4 4 4 4 3 3 4 4 4 4 4 5 5 5 5 5 5 5 5 5 5 5 5 5 5
5 8 8 8 9 8 4 2 3 6 8 3 4 5 4 3 5 4 3 4 4 3 2 2 2 3 3 3 4 5 5 5 5 5 5 5 5 5 5 5 5 5 5 5
5 6 9 11 10 7 4 4 3 6 3 4 5 4 4 5 5 4 4 3 3 2 2 1 1 2 2 3 4 5 5 5 4 4 4 5 5 5 5 5 4 4 4 5
6 6 8 8 10 6 3 1 3 4 5 5 5 5 6 6 4 3 3 2 2 1 1 1 1 2 2 2 3 4 4 4 3 3 4 4 5 4 4 5 4 4 4 5
5 5 5 5 4 3 2 3 5 6 7 7 7 7 5 5 4 4 3 3 2 2 2 2 2 2 2 2 3 4 4 3 3 4 4 4 4 4 5 5 4 4 4 4
4 4 5 6 6 5 5 5 6 6 7 7 7 6 4 4 5 5 4 3 3 3 3 2 2 3 3 3 3 3 3 3 4 5 5 4 4 5 5 4 4 4 4 4
6 5 6 8 7 6 6 6 7 7 6 6 5 5 5 4 5 5 5 5 4 4 4 3 3 3 4 4 3 3 3 3 4 5 5 5 5 5 5 5 4 5 5 5
6 7 7 7 6 6 7 7 8 7 6 5 5 5 5 5 5 5 5 5 4 4 4 4 4 4 4 4 4 3 3 4 4 4 4 4 4 4 5 4 4 3 4 4
Wind_Direction
191 213 220 225 235 257 252 249 253 261 257 252 256 261 245 216 220 225 220 217 213 212 207 199 193 190 187 189 193 188 184 181 175 175 179 172 164 160 153 141 127 139 136 131
203 223 229 226 218 226 235 245 253 260 245 260 269 267 255 222 224 229 227 218 217 212 204 196 194 188 190 190 196 195 192 185 183 185 183 178 168 170 161 157 155 160 158 158
214 213 201 209 214 223 236 248 257 268 264 242 268 259 230 211 212 219 228 228 215 212 207 198 195 193 194 195 196 197 192 187 186 183 178 172 162 168 173 175 175 167 167 172
222 214 206 219 225 236 243 246 256 257 258 254 246 274 238 211 212 218 223 222 212 205 205 198 194 194 198 198 197 198 191 188 186 183 184 185 188 189 192 188 177 177 181 181
205 209 217 228 235 236 249 254 248 252 258 262 241 261 252 195 220 222 220 216 209 204 200 197 195 195 197 194 192 193 188 188 185 187 186 194 197 198 191 189 186 188 189 197
227 213 230 237 232 224 210 207 216 231 249 253 247 250 261 214 229 224 207 207 202 200 197 196 186 184 186 183 184 186 185 186 186 190 192 199 198 197 193 197 194 193 196 205
214 207 206 218 209 191 214 230 233 230 228 245 236 250 254 95 274 253 222 191 186 189 185 181 177 181 181 180 181 182 183 188 190 193 198 202 205 204 204 200 201 202 201 204
223 211 198 209 229 227 221 232 242 255 257 262 229 245 219 134 207 247 215 194 176 179 179 177 175 176 179 180 183 186 187 190 192 197 201 203 201 204 211 208 203 206 211 208
232 230 195 219 233 235 224 229 250 261 265 265 246 241 223 178 183 156 161 177 183 176 178 180 177 178 179 178 184 188 190 192 194 198 200 201 200 201 207 212 209 209 211 208
241 243 215 192 195 215 250 225 222 236 251 254 252 248 239 198 202 163 151 181 199 192 186 178 178 181 179 178 180 188 193 196 197 199 200 199 201 200 202 205 206 209 208 206
238 240 220 205 219 220 200 214 227 238 246 258 262 253 28 224 212 218 276 251 212 200 194 182 178 181 176 172 174 183 190 196 199 201 201 201 200 198 197 203 206 209 209 206
229 246 242 230 226 269 236 231 229 241 243 248 264 262 108 230 229 246 288 296 218 203 195 182 174 173 171 173 175 187 190 189 196 200 201 202 201 199 200 202 203 207 211 214
212 236 244 226 203 199 222 229 236 245 253 248 252 249 151 204 237 244 262 272 233 203 190 178 172 173 174 176 176 184 198 194 190 195 201 200 201 202 203 206 206 207 210 216
238 238 244 251 262 244 240 236 234 238 246 251 251 264 260 257 264 265 265 255 238 207 191 188 185 187 185 185 182 177 194 194 188 190 198 202 206 209 208 208 209 211 210 214
237 247 250 260 267 262 257 254 241 240 249 258 265 267 271 271 272 267 258 251 236 215 208 209 206 202 197 193 195 186 188 194 191 189 195 205 215 214 211 208 210 214 217 217
245 252 258 257 255 256 260 257 250 248 252 256 264 266 273 278 275 261 250 247 244 240 238 239 228 218 212 206 206 199 196 199 194 192 195 203 215 215 212 209 208 210 215 218
239 246 254 258 256 258 254 250 242 239 243 252 257 266 279 272 274 267 262 254 256 262 258 249 243 230 227 224 214 207 200 198 200 201 199 203 211 214 217 212 208 211 214 213
242 245 249 261 251 246 252 269 255 242 246 252 263 279 284 284 287 281 273 267 272 276 269 261 256 245 238 231 215 205 196 197 204 208 206 207 212 213 213 214 211 217 219 217
232 234 240 245 249 254 247 254 254 245 245 257 266 278 293 306 285 269 290 292 289 287 278 270 268 262 243 229 214 205 203 203 209 214 213 213 213 214 212 217 220 220 221 222
214 225 235 241 249 254 266 295 290 252 242 261 279 280 284 279 263 270 312 308 295 291 291 289 284 270 243 229 217 210 211 213 219 220 217 216 213 215 215 217 221 221 219 222
203 213 228 241 250 259 315 318 260 234 281 340 307 292 286 277 292 302 308 307 303 305 313 313 310 302 272 242 221 216 215 220 224 220 213 213 213 214 217 217 215 217 219 221
245 236 233 237 241 252 6 309 257 311 337 326 321 309 297 295 305 304 302 297 288 302 314 315 325 317 293 247 226 222 224 228 224 214 209 213 215 213 214 211 210 210 211 218
252 263 262 250 264 332 326 306 319 314 308 312 314 310 297 296 299 301 302 296 285 286 298 314 317 312 299 270 240 235 237 233 228 227 220 222 219 215 215 211 207 206 208 219
253 275 261 263 266 285 293 301 309 307 307 309 307 305 299 293 297 298 298 298 294 292 299 304 300 296 297 291 265 250 239 232 234 233 229 230 225 219 217 216 213 210 209 219
267 256 259 263 271 282 279 298 310 313 315 314 314 310 303 299 296 298 299 298 296 296 297 297 293 291 292 293 278 261 248 236 238 235 233 231 229 226 227 223 221 219 219 222
250 251 258 266 274 275 285 298 303 306 308 311 314 315 312 307 300 301 300 299 295 293 297 300 297 293 293 295 288 277 260 239 234 231 227 227 230 230 229 227 228 222 231 219
Height
1505 1504 1504 1503 1504 1505 1506 1507 1509 1508 1507 1509 1507 1506 1506 1509 1511 1511 1512 1513 1515 1516 1518 1520 1522 1524 1525 1527 1530 1532 1534 1535 1536 1538 1539 1540 1541 1542 1542 1543 1543 1543 1544 1544
1504 1504 1502 1503 1505 1506 1506 1508 1508 1507 1507 1508 1506 1504 1503 1506 1508 1509 1509 1511 1512 1514 1516 1518 1520 1521 1523 1525 1527 1530 1532 1533 1535 1536 1538 1539 1540 1541 1542 1542 1543 1543 1544 1544
1501 1501 1503 1505 1506 1506 1506 1507 1507 1508 1507 1506 1507 1504 1501 1502 1505 1507 1508 1508 1509 1511 1513 1515 1517 1518 1520 1522 1525 1527 1529 1531 1533 1535 1536 1538 1539 1540 1541 1542 1542 1543 1543 1543
1500 1501 1504 1504 1504 1504 1507 1504 1505 1507 1508 1506 1507 1508 1497 1497 1500 1503 1505 1506 1507 1509 1510 1512 1514 1516 1518 1520 1522 1525 1527 1529 1531 1533 1534 1536 1537 1539 1540 1541 1541 1542 1542 1542
1500 1501 1502 1503 1502 1503 1503 1504 1504 1505 1505 1505 1502 1505 1495 1495 1498 1498 1500 1503 1505 1507 1508 1509 1511 1513 1515 1518 1520 1522 1525 1527 1529 1531 1532 1534 1536 1537 1538 1539 1540 1541 1541 1541
1499 1501 1501 1500 1501 1502 1504 1505 1504 1504 1504 1509 1499 1502 1498 1492 1494 1495 1498 1501 1503 1504 1506 1507 1509 1511 1513 1515 1518 1520 1523 1525 1527 1529 1530 1532 1534 1535 1536 1538 1539 1539 1540 1540
1499 1499 1500 1501 1501 1503 1502 1505 1510 1511 1511 1505 1497 1500 1496 1491 1493 1495 1497 1499 1501 1503 1504 1505 1506 1508 1510 1513 1515 1518 1520 1522 1524 1526 1528 1530 1531 1533 1534 1536 1537 1537 1538 1538
1500 1500 1497 1498 1499 1499 1499 1500 1510 1517 1511 1502 1499 1498 1491 1491 1495 1496 1497 1499 1500 1502 1503 1504 1505 1506 1508 1510 1513 1515 1518 1520 1522 1524 1526 1528 1529 1530 1532 1533 1534 1535 1536 1536
1498 1499 1496 1497 1497 1497 1498 1498 1497 1502 1502 1505 1496 1491 1489 1491 1493 1495 1496 1498 1499 1500 1501 1502 1503 1505 1507 1508 1510 1513 1515 1517 1519 1521 1523 1525 1526 1528 1529 1530 1532 1533 1533 1534
1495 1499 1495 1497 1498 1499 1496 1495 1499 1502 1509 1508 1499 1493 1489 1489 1491 1493 1495 1496 1498 1499 1500 1501 1502 1503 1505 1507 1509 1511 1513 1515 1517 1519 1521 1522 1523 1525 1526 1527 1528 1530 1531 1531
1495 1497 1496 1496 1496 1495 1498 1499 1497 1497 1498 1504 1503 1493 1485 1487 1489 1492 1494 1496 1497 1498 1499 1500 1501 1502 1504 1505 1507 1508 1510 1512 1514 1516 1518 1519 1520 1521 1523 1524 1525 1526 1527 1528
1495 1495 1494 1493 1493 1494 1493 1493 1494 1500 1498 1496 1497 1494 1486 1488 1490 1492 1494 1495 1497 1498 1498 1499 1500 1501 1502 1503 1505 1507 1508 1510 1511 1513 1515 1516 1517 1518 1520 1521 1522 1523 1524 1525
1497 1496 1498 1496 1498 1497 1494 1493 1493 1493 1493 1494 1496 1492 1486 1488 1490 1492 1493 1495 1495 1496 1497 1497 1498 1499 1500 1501 1503 1504 1505 1507 1508 1510 1512 1513 1514 1515 1516 1518 1519 1520 1521 1522
1498 1494 1497 1498 1492 1491 1493 1495 1494 1493 1493 1491 1488 1485 1484 1486 1488 1491 1492 1493 1494 1494 1495 1496 1496 1497 1498 1499 1501 1502 1503 1504 1506 1507 1509 1510 1511 1512 1513 1514 1516 1517 1518 1519
1497 1494 1491 1490 1490 1491 1492 1492 1492 1491 1488 1488 1483 1483 1482 1484 1487 1489 1491 1492 1492 1493 1493 1494 1494 1495 1496 1497 1498 1499 1500 1502 1503 1504 1505 1507 1508 1509 1510 1511 1512 1513 1514 1515
1496 1494 1491 1491 1490 1490 1491 1488 1488 1488 1486 1484 1483 1483 1482 1484 1486 1487 1489 1490 1490 1491 1491 1492 1492 1493 1494 1495 1496 1497 1498 1499 1500 1501 1502 1503 1504 1505 1506 1507 1508 1509 1510 1511
1495 1493 1493 1489 1488 1490 1489 1483 1483 1484 1483 1484 1483 1482 1482 1484 1485 1486 1487 1488 1488 1489 1489 1490 1490 1491 1492 1492 1493 1494 1495 1496 1497 1498 1499 1500 1501 1502 1502 1503 1505 1505 1506 1507
1494 1492 1491 1489 1490 1493 1482 1480 1481 1481 1481 1482 1482 1482 1483 1484 1485 1485 1486 1486 1486 1487 1487 1487 1488 1488 1489 1490 1490 1491 1492 1493 1494 1495 1496 1497 1497 1498 1499 1500 1501 1502 1503 1504
1492 1492 1491 1489 1487 1480 1479 1480 1481 1481 1480 1481 1481 1482 1483 1484 1484 1484 1484 1485 1485 1485 1485 1485 1485 1485 1485 1486 1487 1488 1489 1490 1491 1491 1492 1493 1494 1494 1495 1496 1497 1498 1499 1500
1491 1490 1490 1488 1488 1484 1479 1479 1480 1481 1478 1480 1481 1481 1482 1482 1480 1480 1482 1482 1482 1483 1483 1482 1482 1482 1482 1483 1484 1485 1485 1486 1487 1487 1488 1489 1490 1490 1491 1492 1493 1494 1495 1496
1489 1489 1488 1486 1484 1478 1482 1482 1481 1483 1480 1482 1481 1480 1481 1481 1480 1480 1480 1480 1480 1480 1480 1480 1479 1479 1479 1480 1480 1481 1482 1482 1483 1483 1484 1485 1486 1487 1488 1489 1489 1490 1491 1492
1485 1485 1484 1483 1484 1483 1483 1482 1482 1481 1482 1481 1481 1480 1480 1479 1479 1478 1478 1478 1478 1477 1477 1477 1476 1476 1476 1476 1477 1477 1478 1478 1479 1480 1481 1482 1483 1483 1484 1485 1486 1487 1487 1488
1486 1486 1483 1483 1483 1483 1484 1484 1485 1484 1482 1481 1480 1479 1478 1478 1477 1476 1476 1476 1475 1475 1474 1474 1474 1474 1473 1474 1474 1474 1474 1475 1475 1476 1477 1478 1479 1479 1480 1481 1482 1483 1483 1484
1485 1488 1486 1483 1481 1483 1484 1483 1483 1482 1481 1480 1479 1478 1477 1476 1475 1475 1474 1474 1473 1472 1472 1472 1472 1471 1471 1470 1470 1470 1471 1471 1472 1472 1473 1474 1475 1476 1477 1477 1478 1479 1479 1480
1486 1486 1484 1481 1481 1482 1481 1482 1481 1480 1479 1478 1476 1476 1475 1474 1473 1472 1472 1471 1471 1470 1469 1469 1468 1467 1467 1467 1467 1467 1467 1467 1467 1468 1469 1471 1471 1472 1473 1473 1474 1474 1475 1476
1484 1483 1481 1478 1479 1480 1479 1479 1478 1477 1476 1475 1474 1473 1472 1472 1471 1470 1469 1469 1468 1467 1467 1466 1465 1465 1464 1464 1463 1462 1462 1463 1463 1464 1465 1466 1467 1468 1469 1469 1470 1470 1471 1471